Flag for Switzerland Past Weather in Affoltern am Albis, Zurich, Switzerland — Yesterday and Last 2 Weeks

Now
63 °F

Mild.


Feels Like: 63 °F
Forecast: 50 / 67 °F
Wind: 3 mph from West

Location: Zuerich-Fluntern

Current Time: Jul 2, 2016 at 11:31:49 AM

Latest Report: Jul 2, 2016 at 10:00 AM


Visibility: N/A

Pressure: 30.03 "Hg

Humidity: 94%

Dew Point: 61 °F

Location of Affoltern am AlbisLocation

Past Weather in Affoltern am Albis — Graph

°F

Affoltern am Albis Temperature Yesterday

Maximum temperature yesterday: 78 °F (at 6:00 PM)
Minimum temperature yesterday: 60 °F (at 6:00 AM)
Average temperature yesterday: 68 °F

High & Low Weather Summary for the Past Weeks

 TemperatureHumidityPressure
High90 °F (Jun 23, 6:00 PM)97% (Jun 20, 4:00 AM)30.28 "Hg (Jun 20, 4:00 AM)
Low50 °F (Jun 18, 6:00 AM)38% (Jun 24, 3:00 PM)29.85 "Hg (Jun 17, 12:00 PM)
Average65 °F76%30.08 "Hg
* Reported Jun 17 10:00 AM — Jul 2 10:00 AM, Affoltern am Albis, Weather by CustomWeather, © 2016

Note: Actual official high and low records may vary slightly from our data, if they occured in-between our weather recording intervals... More about our weather records

Advertising

Affoltern am Albis Weather History for the Previous 24 Hours

Scroll right to see more
 ConditionsComfort  
Time TempWeatherWind HumidityBarometerVisibility
10:00 AM
Sat, Jul 2
63 °FMild.3 mph94%30.03 "HgN/A
9:00 AM62 °FCool.2 mph94%30.03 "HgN/A
8:00 AM62 °FCool.3 mph94%30.03 "HgN/A
7:00 AM63 °FMild.2 mph87%30.01 "HgN/A
6:00 AM65 °FMild.5 mph80%30.01 "HgN/A
5:00 AM65 °FMild.3 mph87%29.99 "HgN/A
4:00 AM66 °FMild.3 mph86%29.98 "HgN/A
3:00 AM65 °FMild.1 mph86%29.97 "HgN/A
2:00 AM64 °FMild.2 mph87%29.98 "HgN/A
1:00 AM65 °FMild.3 mph85%30.00 "HgN/A
12:00 AM66 °FMild.2 mph83%30.00 "HgN/A
11:00 PM
Fri, Jul 1
67 °FMild.2 mph82%30.00 "HgN/A
10:00 PM68 °FMild.2 mph81%29.99 "HgN/A
9:00 PM72 °FMild.2 mph76%29.96 "HgN/A
8:00 PM75 °FScattered clouds.2 mph60%29.95 "HgN/A
7:00 PM77 °FMild.3 mph55%29.94 "HgN/A
6:00 PM78 °FWarm.3 mph54%29.94 "HgN/A
5:00 PM77 °FWarm.3 mph52%29.96 "HgN/A
4:00 PM75 °FMild.1 mph59%29.98 "HgN/A
3:00 PM78 °FWarm.5 mph56%29.98 "HgN/A
2:00 PM76 °FScattered clouds.5 mph59%30.00 "HgN/A
1:00 PM73 °FMild.3 mph61%30.03 "HgN/A
12:00 PM70 °FMild.2 mph68%30.05 "HgN/A
11:00 AM68 °FMild.1 mph79%30.06 "HgN/A
Weather by CustomWeather, © 2016

See weather overviewHow to use our weather pages